N650GA KASE-KLAX

Flight info

Callsign N650GA
Flight time N/A
Altitude 40000
Route LINDZ JNC PEEWE Q98 HAKMN ANJLL4
Aircraft GLF6/M-SFGHIRWXY/S

Departure

Time 2026-05-07 12:32
Airport Aspen-Pitkin County Airport (Sardy Field) (KASE)

Arrival

Time N/A
Airport Los Angeles International Airport (KLAX)
Time Latitude Longitude Altitude Speed Heading
2026-05-07 12:15 39.22204 -106.86536 7786 ft 0 kts 244°
2026-05-07 12:24 39.22204 -106.86535 7786 ft 0 kts 244°
2026-05-07 12:25 39.22204 -106.86536 7786 ft 0 kts 244°
2026-05-07 12:26 39.22202 -106.86542 7786 ft 0 kts 244°
2026-05-07 12:26 39.22194 -106.86564 7786 ft 5 kts 245°
2026-05-07 12:26 39.22180 -106.86603 7787 ft 5 kts 244°
2026-05-07 12:26 39.22168 -106.86636 7787 ft 3 kts 244°
2026-05-07 12:27 39.22160 -106.86657 7787 ft 3 kts 252°
2026-05-07 12:27 39.22173 -106.86691 7786 ft 7 kts 319°
2026-05-07 12:27 39.22232 -106.86720 7780 ft 15 kts 342°
2026-05-07 12:27 39.22362 -106.86785 7769 ft 20 kts 338°
2026-05-07 12:28 39.22443 -106.86823 7762 ft 22 kts 341°
2026-05-07 12:28 39.22636 -106.86914 7747 ft 25 kts 339°
2026-05-07 12:28 39.22798 -106.86990 7734 ft 27 kts 340°
2026-05-07 12:28 39.22896 -106.87042 7728 ft 6 kts 315°
2026-05-07 12:29 39.22899 -106.87058 7729 ft 2 kts 268°
2026-05-07 12:29 39.22898 -106.87070 7729 ft 3 kts 263°
2026-05-07 12:29 39.22892 -106.87099 7730 ft 5 kts 251°
2026-05-07 12:29 39.22889 -106.87109 7730 ft 5 kts 251°
2026-05-07 12:30 39.22890 -106.87146 7731 ft 7 kts 299°
2026-05-07 12:30 39.22957 -106.87193 7728 ft 11 kts 341°
2026-05-07 12:30 39.23034 -106.87229 7724 ft 13 kts 338°
2026-05-07 12:30 39.23124 -106.87273 7719 ft 15 kts 337°
2026-05-07 12:31 39.23188 -106.87310 7715 ft 0 kts 326°
2026-05-07 12:31 39.23198 -106.87322 7715 ft 1 kts 345°
2026-05-07 12:31 39.23203 -106.87318 7714 ft 1 kts 37°
2026-05-07 12:31 39.23172 -106.87283 7715 ft 13 kts 163°
2026-05-07 12:32 39.23009 -106.87218 7726 ft 50 kts 161°
2026-05-07 12:32 39.22494 -106.87007 7758 ft 110 kts 154°
2026-05-07 12:32 39.21651 -106.86550 7835 ft 170 kts 162°
2026-05-07 12:32 39.20580 -106.86028 8679 ft 166 kts 155°
2026-05-07 12:33 39.18376 -106.85458 10061 ft 185 kts 201°
2026-05-07 12:33 39.17327 -106.86469 10575 ft 206 kts 246°
2026-05-07 12:33 39.17080 -106.87584 10943 ft 221 kts 271°
2026-05-07 12:34 39.19066 -106.90723 12752 ft 261 kts 330°
2026-05-07 12:34 39.21110 -106.91951 12842 ft 322 kts 332°
2026-05-07 12:34 39.22814 -106.92954 13487 ft 342 kts 332°
2026-05-07 12:35 39.23167 -106.93161 13659 ft 344 kts 332°
2026-05-07 12:35 39.24773 -106.94109 14428 ft 355 kts 331°
2026-05-07 12:35 39.26590 -106.95499 15548 ft 358 kts 320°
2026-05-07 12:36 39.27779 -106.96829 16424 ft 359 kts 313°
2026-05-07 12:36 39.30595 -107.01003 18589 ft 373 kts 306°
2026-05-07 12:36 39.32535 -107.04324 20147 ft 384 kts 304°
2026-05-07 12:37 39.34629 -107.08062 21678 ft 398 kts 303°
2026-05-07 12:37 39.36181 -107.10873 22917 ft 405 kts 303°
2026-05-07 12:37 39.37364 -107.13123 23839 ft 408 kts 298°
2026-05-07 12:38 39.37955 -107.20621 26397 ft 417 kts 257°
2026-05-07 12:38 39.37384 -107.23524 26931 ft 430 kts 257°
2026-05-07 12:38 39.36874 -107.26117 27787 ft 432 kts 257°
2026-05-07 12:38 39.36362 -107.28739 28415 ft 438 kts 258°
2026-05-07 12:39 39.36091 -107.30131 28740 ft 442 kts 257°
2026-05-07 12:39 39.36034 -107.30418 28804 ft 443 kts 258°
2026-05-07 12:39 39.35337 -107.33981 29715 ft 449 kts 258°
2026-05-07 12:39 39.34598 -107.37762 30558 ft 457 kts 258°
2026-05-07 12:40 39.33879 -107.41437 31358 ft 461 kts 258°
2026-05-07 12:40 39.33194 -107.44933 32334 ft 458 kts 259°
2026-05-07 12:40 39.31993 -107.51038 33866 ft 456 kts 259°
2026-05-07 12:41 39.31433 -107.53890 34462 ft 456 kts 258°